Regional Weather Roundup
Issued by NWS Sterling, VA

Home | Current Version | Previous Version | Text Only | Print | Product List | Glossary Off
Versions: 1 2 3 4 5 6 7 8 9 10 11 12 13 14 15 16 17 18 19 20 21 22 23 24 25 26 27 28

000
ASUS41 KLWX 301910
RWRLWX

REGIONAL WEATHER ROUNDUP
NATIONAL WEATHER SERVICE BALTIMORE MD/WASHINGTON DC
300 PM EDT FRI SEP 30 2016

Note: "FAIR" indicates few or no clouds below 12,000 feet
with no significant weather and/or obstructions to visibility.
 TC=TEMPERATURE CELSIUS

 * =Non NWS site. Station does not report precipitation (e.g. rain,
    snow, etc.), thunder, or fog.

DCZ001-MDZ009-015-VAZ040>042-051-053>054-302000-
WASHINGTON METRO

CITY           SKY/WX    TMP DP  RH WIND       PRES   REMARKS
WASHINGTON NAT DRIZZLE   65  63  93 NE15      30.13F
DULLES         DRIZZLE   63  60  90 NE10      30.14F
ANDREWS AFB    CLOUDY    64  63  95 NE10      30.11F FOG
FT BELVOIR     CLOUDY    64  62  91 VRB3      30.12F FOG
QUANTICO       CLOUDY    67  63  87 NE13      30.11F
LEESBURG*      RAIN      63  63 100 NE6       30.16S
MANASSAS*      CLOUDY    64  64 100 N7        30.13F FOG
GAITHERSBURG*  CLOUDY    61  55  82 NE5       30.18F

$$

MDZ006>007-011-014-302000-
BALTIMORE METRO

CITY           SKY/WX    TMP DP  RH WIND       PRES   REMARKS
BWI AIRPORT    DRIZZLE   62  61  96 NE15      30.14F FOG
MD SCIENCE CTR   N/A     64  58  80 MISG      30.16F
MARTIN STATE   CLOUDY    64  63  94 NE10      30.17F
ANNAPOLIS      CLOUDY    66  64  93 NE10      30.12F
FORT MEADE*    CLOUDY    61  59  94 NE6G16    30.16F

$$

MDZ012-015-019>023-302000-
MARYLAND EASTERN SHORE

CITY           SKY/WX    TMP DP  RH WIND       PRES   REMARKS
OCEAN CITY     CLOUDY    70  69  97 NE15      30.08F
SALISBURY      CLOUDY    70  68  93 NE12      30.09F FOG
EASTON*        CLOUDY    68  64  88 E17G24    30.15F

$$

MDZ017>025-302000-
SOUTHERN MARYLAND

CITY           SKY/WX    TMP DP  RH WIND       PRES   REMARKS
PATUXENT RIVER CLOUDY    70  66  87 NE14G20   30.09S
ST INIGOES     CLOUDY    71  68  90 NE10      30.08S
LEONARDTOWN*   CLOUDY    68  64  88 NE6       30.11F

$$

MDZ003>005-302000-
NORTH CENTRAL MARYLAND

CITY           SKY/WX    TMP DP  RH WIND       PRES   REMARKS
FREDERICK*     CLOUDY    61  61 100 NE10      30.19F FOG
HAGERSTOWN APT CLOUDY    60  53  77 NE13      30.17F

$$

MDZ501>502-302000-
WESTERN MARYLAND

CITY           SKY/WX    TMP DP  RH WIND       PRES   REMARKS
OAKLAND*       FOG       50  50 100 E15G24    30.14S VSB 1/4
CUMBERLAND*    CLOUDY    59  57  94 N3        30.20F

$$

VAZ025>031-302000-
SHENANDOAH VALLEY

CITY           SKY/WX    TMP DP  RH WIND       PRES   REMARKS
WINCHESTER*    DRIZZLE   59  59 100 NE8       30.15F
FRONT ROYAL*   CLOUDY    59  59 100 NE5       30.13F
LURAY*         CLOUDY    61  61 100 N12       30.11F
NEW MARKET*    CLOUDY   N/A N/A N/A NE12G17   30.10F
STAUNTON*      CLOUDY    61  60  95 NW6       30.11S
WAYNESBORO*    CLOUDY    60  59  96 CALM      30.10S

$$

WVZ021-048>050-054>055-302000-
EASTERN WEST VIRGINIA PANHANDLE

CITY           SKY/WX    TMP DP  RH WIND       PRES   REMARKS
MARTINSBURG    CLOUDY    59  56  89 N12       30.15F
PETERSBURG*    CLOUDY    59  58  96 NE5       30.12F FOG

$$

VAZ036>039-050-302000-
CENTRAL FOOTHILLS

CITY           SKY/WX    TMP DP  RH WIND       PRES   REMARKS
CHARLOTTESVILL CLOUDY    64  61  90 NE12G22   30.08F FOG
CULPEPER*      DRIZZLE   64  64  99 NE5       30.12F
ORANGE*          N/A     64  64 100 N8        30.10F FOG
GORDONSVILLE*  NOT AVBL
WARRENTON*     DRIZZLE   64  59  85 NE9       30.11F

$$

VAZ055>057-302000-
NORTH AND CENTRAL PIEDMONT

CITY           SKY/WX    TMP DP  RH WIND       PRES   REMARKS
FREDERICKSBRG* CLOUDY    66  66 100 NE7       30.08F FOG
STAFFORD*      CLOUDY    65  65 100 NE7       30.13F FOG

$$

NCZ024-NYZ072-PAZ021-071-VAZ022-071-302000-
OTHER REGIONAL OBSERVATIONS

CITY           SKY/WX    TMP DP  RH WIND       PRES   REMARKS
NEW YORK CITY  LGT RAIN  59  57  93 NE8       30.28F FOG
PHILADELPHIA   DRIZZLE   63  60  90 NE16G23   30.20S FOG
PITTSBURGH     CLOUDY    63  57  81 E10       30.10F
ROANOKE        PTSUNNY   69  65  86 NE8       30.04F
RICHMOND       CLOUDY    73  69  87 NE8       30.04F
RALEIGH        PTSUNNY   80  70  71 SE12G22   29.97F

$$

ANZ530>537-302000-
MARINE OBSERVATIONS

STATION/POSITION TIME  TEMP    WIND        PRES
                       AIR SEA DIR/SP/G
                 (UTC) (F)     (DEG/KT/KT) (MB)
THOMAS PT LIGHT  1900   67 72   60/ 14/ 17 1021.1F
BALT KEY BRIDGE  1848   62      30/ 12/ 14 1021.0F
COVE POINT       1848   68      90/ 18/ 21 1019.6F
LEWISETTA        1848   71 72   70/ 14/ 17 1017.9F
SOLOMONS ISLAND  1836   70 74   30/  8/ 14   N/A
PINEY POINT      1848           80/ 10/ 14   N/A

$$





USA.gov is the U.S. government's official web portal to all federal, state and local government web resources and services.